Miscellaneous Local Product
Issued by NWS Hastings, NE

Home | Current Version | Previous Version | Text Only | Print | Product List | Glossary On
Versions: 1 2 3 4 5 6 7 8 9 10 11 12 13 14 15 16 17 18 19 20 21 22 23 24 25 26 27 28 29 30 31 32 33 34 35 36 37 38 39 40 41 42 43 44 45 46 47 48 49 50
647
AXUS43 KGID 070802
MISGRI

GID CWA HOURLY WEATHER ROUNDUP
NATIONAL WEATHER SERVICE HASTINGS NE
200 AM CST SUN FEB 07 2016

NOTE: "FAIR" INDICATES FEW OR NO CLOUDS BELOW 12,000 FEET WITH NO
SIGNIFICANT WEATHER AND/OR OBSTRUCTIONS TO VISIBILITY.

...SOUTH CENTRAL NEBRASKA...

CITY           SKY/WX    TMP DP  RH WIND       PRES   REMARKS
GRAND ISLAND   CLOUDY    35  27  72 NW14      30.01R WCI  26
HASTINGS       CLOUDY    35  27  72 NW16      30.01R WCI  25
ORD            CLEAR     34  26  72 NW10      29.99S WCI  26
YORK           PTCLDY    32  28  86 NW14      29.97R WCI  22
AURORA         CLOUDY    32  28  83 W10       29.99R WCI  24
LEXINGTON      CLOUDY    34  28  77 NW12      30.06R WCI  25
HOLDREGE       CLOUDY    37  28  71 NW9       30.04S WCI  30
HEBRON         CLOUDY    37  28  71 NW8       29.99F WCI  30

...NEBRASKA PANHANDLE...

CITY           SKY/WX    TMP DP  RH WIND       PRES   REMARKS
CHADRON        CLOUDY    35  21  56 W14       30.11S WCI  26
ALLIANCE       CLEAR     22  16  78 W15       30.10R WCI   9
SCOTTSBLUFF    CLEAR     29  20  69 NW10      30.14S WCI  20
SIDNEY         CLEAR     32  21  64 NW16      30.13F WCI  21

...WESTERN AND NORTH CENTRAL NEBRASKA...

CITY           SKY/WX    TMP DP  RH WIND       PRES   REMARKS
VALENTINE      PTCLDY    37  23  56 W14G22    30.02S WCI  28
AINSWORTH      CLEAR     37  24  59 W15       30.01S WCI  28
ONEILL         PTCLDY    40  26  56 NW20G26   29.97R WCI  31
BROKEN BOW     CLEAR     36  26  67 NW20      30.01S WCI  25
IMPERIAL         N/A     33  24  69 NW9       30.11S WCI  25
NORTH PLATTE   CLOUDY    32  24  72 NW13      30.07R WCI  22
MCCOOK         CLOUDY    36  27  69 W12       30.10S WCI  28

...EASTERN NEBRASKA...

CITY           SKY/WX    TMP DP  RH WIND       PRES   REMARKS
NORFOLK        CLEAR     34  25  69 W10       29.92R WCI  26
SO SIOUX CITY  CLOUDY    29  24  82 W3        29.88R
TEKAMAH        CLEAR     28  22  78 SW6       29.90F WCI  22
COLUMBUS       CLOUDY    34  21  60 W10       29.95R WCI  26
ALBION         CLEAR     35  25  66 NW12      29.95S WCI  27
OMAHA EPPLEY   CLOUDY    36  27  69 S3        29.92F
OFFUTT AFB     CLOUDY    30  26  83 SW5       29.92F WCI  26
MILLARD        CLOUDY    34  28  77 CALM      29.93F
LINCOLN        CLOUDY    32  26  78 S5        29.96F WCI  27
NEBRASKA CITY  PTCLDY    34  27  76 W14       29.94F WCI  25
BEATRICE       CLOUDY    34  29  81 W8        29.97S WCI  28
FALLS CITY     CLOUDY    38  27  64 SW13      29.96S WCI  30

...NORTHERN KANSAS...

CITY           SKY/WX    TMP DP  RH WIND       PRES   REMARKS
GOODLAND       CLOUDY    30  23  75 NW9       30.12S WCI  22
HILL CITY      CLOUDY    39  28  64 NW10      30.09R WCI  32
NORTON         SUNNY     36  25  64 W12       30.07S WCI  27
PHILLIPSBURG   CLEAR     39  28  65 NW15      30.06S WCI  31
BELOIT         CLEAR     36  28  75 W6        30.02S WCI  31
HAYS           CLOUDY    34  19  55 NW8       30.07S WCI  27
RUSSELL        CLOUDY    37  27  67 W10       30.05S WCI  30
CONCORDIA      CLOUDY    37  26  64 W12       30.00F WCI  29
SALINA         CLOUDY    40  21  46 SW14      30.05R WCI  32
TOPEKA         PTCLDY    41  25  53 SW12G20   30.02F



USA.gov is the U.S. government's official web portal to all federal, state and local government web resources and services.